Other Surface Observations
Issued by NWS Upton, NY

Home | Current Version | Previous Version | Text Only | Print | Product List | Glossary On
Versions: 1 2 3 4 5 6 7 8 9 10 11 12 13 14 15 16 17 18 19 20 21 22 23 24 25 26 27 28 29 30 31 32 33 34 35 36 37 38 39 40 41 42 43 44 45 46 47 48 49 50
000
SXUS51 KOKX 240357
OSOOKX
NEW YORK CITY METROPOLITAN AREA WEATHER ROUNDUP
National Weather Service New York NY
1100 PM EST MON JAN 23 2017

CITY           SKY/WX    TMP DP  RH WIND       PRES   REMARKS
Central Park   RAIN      36  35  96 NE20G36   29.53F FOG     WCI  25
LaGuardia APRT RAIN      39  35  86 NE31G38   29.51F FOG     WCI  27
Kennedy INTL   RAIN      38  35  89 NE28G38   29.49F FOG     WCI  26
Newark Liberty RAIN      38  35  89 NE21G30   29.52F FOG     WCI  28
Teterboro APRT RAIN      38  35  89 N13G20    29.52F FOG     WCI  30
Wall St Helipt CLOUDY    39  36  87 NE30G38   29.51F WCI  27

>>>>>>>>>>>>>>>>>>>>>>>>>>>>>>>>> KEY <<<<<<<<<<<<<<<<<<<<<<<<<<<<<<<
> SKY/WX - SKY CONDITION/PRESENT    : R : WCI - WIND CHILL INDEX    <
>          WEATHER (NA for Heliport): E : VSB - VISIBILITY IN MILES <
> TMP    - TEMPERATURE IN DEG F     : M : HX  - HEAT INDEX          <
> DP     - DEW POINT TEMPERATURE    : A : TC  - TEMPERATURE IN      <
> RH     - RELATIVE HUMIDITY        : R :       CELSIUS             <
> WIND   - DIRECTION/SPEED (MPH)    : K : VRB - VARIABLE WIND  DIR  <
> PRES   - PRESSURE (IN HG)         : S :                           <
>>>>>>>>>>>>>>>>>>>>>>>>>>>>>>>>> KEY <<<<<<<<<<<<<<<<<<<<<<<<<<<<<<<




USA.gov is the U.S. government's official web portal to all federal, state and local government web resources and services.